Hourly Data Report for October 14, 2015

All times are specified in Local Standard Time (LST). Add 1 hour to adjust for Daylight Saving Time where and when it is observed.

CHARLOTTETOWN A
PRINCE EDWARD ISLAND

46°17'21.000" N
63°07'09.000" W
48.50 m
8300301
71706
YYG

Download Data

Hourly Data (October 2015)
Hourly Data Report for October 14, 2015
Temp Definition
°C
Dew Point Temp Definition
°C
Rel Hum Definition
%
Wind Dir Definition
10's deg

Wind Spd Definition
km/h
Visibility Definition
km
Stn Press Definition
kPa
Hmdx Definition


Wind Chill Definition


Weather Definition


TIME
00:00 Legend Double Dagger 18.0 17.2 95 19 23 24.1 99.24     LegendNANA
01:00 Legend Double Dagger 17.9 17.1 95 19 24 24.1 99.24     LegendNANA
02:00 Legend Double Dagger 18.0 16.4 90 22 19 24.1 99.23     Cloudy
03:00 Legend Double Dagger 17.8 16.5 92 19 22 24.1 99.18     LegendNANA
04:00 Legend Double Dagger 16.6 15.6 94 19 18 24.1 99.15     LegendNANA
05:00 Legend Double Dagger 16.3 15.4 94 17 20 24.1 99.15     Mostly Cloudy
06:00 Legend Double Dagger 15.7 14.9 95 17 28 24.1 99.11     LegendNANA
07:00 Legend Double Dagger 16.6 15.3 92 17 23 24.1 99.10     LegendNANA
08:00 Legend Double Dagger 17.0 15.5 91 18 19 24.1 99.11     Mostly Cloudy
09:00 Legend Double Dagger 18.0 15.8 87 20 23 24.1 99.14     LegendNANA
10:00 Legend Double Dagger 17.0 14.7 86 24 30 24.1 99.24     LegendNANA
11:00 Legend Double Dagger 17.6 14.2 80 23 27 24.1 99.25     Mostly Cloudy
12:00 Legend Double Dagger 17.9 12.9 72 22 36 24.1 99.24     LegendNANA
13:00 Legend Double Dagger 18.1 12.6 70 22 29 24.1 99.25     LegendNANA
14:00 Legend Double Dagger 18.5 11.9 65 22 31 24.1 99.25     Mainly Clear
15:00 Legend Double Dagger 18.0 10.7 62 22 31 24.1 99.27     LegendNANA
16:00 Legend Double Dagger 17.4 10.6 64 23 21 24.1 99.31     LegendNANA
17:00 Legend Double Dagger 16.5 10.2 66 22 19 24.1 99.38     Mostly Cloudy
18:00 Legend Double Dagger 15.3 10.1 71 23 16 24.1 99.42     LegendNANA
19:00 Legend Double Dagger 14.7 10.0 73 23 14 24.1 99.48     LegendNANA
20:00 Legend Double Dagger 14.0 9.9 76 22 16 24.1 99.50     Mostly Cloudy
21:00 Legend Double Dagger 13.4 9.9 79 22 19 24.1 99.58     LegendNANA
22:00 Legend Double Dagger 13.4 10.4 82 23 13 24.1 99.62     LegendNANA
23:00 Legend Double Dagger 13.3 10.9 85 23 18 24.1 99.62     Mostly Cloudy

Notes on Data Quality.

Legend

  • E = Estimated
  • M = Missing
  • NA = Not Available
  • ‡ = Partner data that is not subject to review by the National Climate Archives
Date modified: